TimeCST,TemperatureF,Dew PointF,Humidity,Sea Level PressureIn,VisibilityMPH,Wind Direction,Wind SpeedMPH,Gust SpeedMPH,PrecipitationIn,Events,Conditions,WindDirDegrees,DateUTC
12:53 AM,41.0,27.0,57,30.22,10.0,Calm,Calm,-,N/A,,Clear,0,2012-11-30 06:53:00
1:53 AM,37.9,27.0,65,30.22,10.0,South,8.1,-,N/A,,Clear,170,2012-11-30 07:53:00
2:53 AM,39.0,28.9,67,30.22,10.0,South,5.8,-,N/A,,Clear,170,2012-11-30 08:53:00
3:53 AM,41.0,28.9,62,30.22,10.0,SSW,4.6,-,N/A,,Clear,200,2012-11-30 09:53:00
4:53 AM,41.0,30.0,65,30.21,10.0,South,6.9,-,N/A,,Clear,180,2012-11-30 10:53:00
5:53 AM,41.0,30.9,67,30.20,10.0,South,9.2,-,N/A,,Clear,180,2012-11-30 11:53:00
6:53 AM,37.0,30.0,76,30.22,10.0,Calm,Calm,-,N/A,,Clear,0,2012-11-30 12:53:00
7:53 AM,44.1,35.1,71,30.21,10.0,SSW,8.1,-,N/A,,Partly Cloudy,210,2012-11-30 13:53:00
8:53 AM,46.9,37.0,68,30.23,10.0,SSW,11.5,-,N/A,,Clear,200,2012-11-30 14:53:00
9:53 AM,50.0,39.0,66,30.24,10.0,SSW,9.2,-,N/A,,Clear,200,2012-11-30 15:53:00
10:53 AM,52.0,39.0,61,30.21,10.0,SSW,10.4,-,N/A,,Clear,200,2012-11-30 16:53:00
11:53 AM,55.0,41.0,59,30.18,10.0,SSW,9.2,-,N/A,,Clear,210,2012-11-30 17:53:00
12:53 PM,57.9,42.1,56,30.15,10.0,South,12.7,-,N/A,,Clear,170,2012-11-30 18:53:00
1:53 PM,59.0,43.0,55,30.13,10.0,South,11.5,-,N/A,,Clear,180,2012-11-30 19:53:00
2:53 PM,59.0,44.1,58,30.13,10.0,South,10.4,-,N/A,,Overcast,190,2012-11-30 20:53:00
3:53 PM,57.9,44.1,60,30.15,10.0,South,6.9,-,N/A,,Partly Cloudy,190,2012-11-30 21:53:00
4:53 PM,53.1,45.0,74,30.14,10.0,South,6.9,-,N/A,,Clear,180,2012-11-30 22:53:00
5:53 PM,51.1,45.0,80,30.15,10.0,South,5.8,-,N/A,,Clear,170,2012-11-30 23:53:00
6:48 PM,51.8,44.6,76,30.16,9.0,South,5.8,-,N/A,,Mostly Cloudy,170,2012-12-01 00:48:00
6:53 PM,51.1,46.0,83,30.17,9.0,South,5.8,-,N/A,,Mostly Cloudy,180,2012-12-01 00:53:00
7:19 PM,51.8,46.4,82,30.16,9.0,SSE,6.9,-,N/A,,Overcast,160,2012-12-01 01:19:00
7:32 PM,53.6,46.4,77,30.16,9.0,South,6.9,-,N/A,,Overcast,170,2012-12-01 01:32:00
7:53 PM,54.0,48.0,80,30.17,9.0,South,5.8,-,N/A,,Overcast,170,2012-12-01 01:53:00
8:53 PM,55.0,48.0,77,30.16,10.0,SSW,9.2,-,N/A,,Overcast,200,2012-12-01 02:53:00
9:37 PM,53.6,46.4,77,30.16,10.0,South,6.9,-,N/A,,Mostly Cloudy,180,2012-12-01 03:37:00
9:53 PM,54.0,48.0,80,30.17,10.0,South,6.9,-,N/A,,Mostly Cloudy,180,2012-12-01 03:53:00
10:28 PM,55.4,48.2,77,30.17,10.0,South,6.9,-,N/A,,Mostly Cloudy,180,2012-12-01 04:28:00
10:53 PM,55.9,48.0,75,30.17,10.0,South,6.9,-,N/A,,Overcast,190,2012-12-01 04:53:00
11:53 PM,57.0,48.0,72,30.16,10.0,South,9.2,-,N/A,,Overcast,190,2012-12-01 05:53:00